WESTFORD NEEDLES, 2431

Orbit data source: Space-Track

WESTFORD NEEDLES, 2431 is space debris in LEO originally from a launch on Thu, 09 May 1963 UTC launched from the Air Force Western Test Range (AFWTR). Debris objects in space refer to the collection of defunct objects orbiting the Earth. Examples of debris include non-operational satellites, rocket bodies, and fragments generated from explosions, collisions, or faulty payload assembly.

Loading next visibility...
Identifier
2431, 1963-014AC
Orbit
LEO
Country
Flag of USUS
Related business
Manufacturer
Unknown
Mission
Spacecraft
Bus & Motor
Unknown
Mass
Unknown
Launch date (UTC)
1963-05-09 (62 years ago)
Launch vehicle
Unknown
Launch site
Air Force Western Test Range (AFWTR)
Object type
Payload
Rocket body
Debris
Shape & HBR
Unknown shape, 0.3 m
Radar Cross Section
Medium (>0.1 m² and <1 m²)

Expand to show TLE details & history
Last TLE update: 2 days ago

TLE from 2 days ago
0 WESTFORD NEEDLES
1 02431U 63014AC  25300.72182793 -.00000728  00000-0 -31126+0 0  9994
2 02431  87.5074 213.1595 0352056 186.4171 173.2103  8.68558535349521
Epoch: 2025-10-27T17:19Z
TLE epoch observation values (Epoch: 2025-10-27T17:19:25.933Z)
Latitude
0.00002°
Longitude
-83.01815°
Altitude
3,970.73 km
Speed
6.097 km/s
True Right ascension
14h 12m 38s
True Declination
0° 00' 00"
Sunlit
Object was in daylight at epoch
Visualization orbit readout
Latitude
Unknown
Longitude
Unknown
Altitude
Unknown
Speed
Unknown
Apparent Right ascension
Unknown
Apparent Declination
Unknown
Sunlit
N/A
Visualization observer readout
Local Sidereal Time
09:27:42
Azimuth
Unknown
Elevation
Unknown
Doppler factor
Unknown
Orbital elements
Apogee altitude
3,968.535 km
Perigee altitude
3,264.789 km
Semi-major axis
9,994.799 km
Eccentricity
0.03521
Inclination
87.5074°
RAAN
213.1595°
Arg. of periapsis
186.4171°
True anomaly
173.66725°
Mean anomaly
173.2103°
Eccentric anomaly
173.44072°
Mean motion
2.17211 °/min
Orbital period
165.74 mins
BSTAR
-0.31126
Loading maneuver chart data...
Computing Atmospheric mass density...

Documentation

Showing up to 5 results
|